Location: M?digepalle
(16.1753°N, 80.3496°E)
Time: 08:09:50
(UTC+00:00)

Centaur AC-72 - Pass Details

Date: 29 October 2020
Orbit: 1150 x 35206 km, 19.1° (Epoch: 27 November)

Event Time Altitude Azimuth Distance (km) Brightness Sun altitude
Rises 04:57:58 0° 241° (WSW) 15,584 8.6 53.7°
Reaches altitude 10° 05:12:47 10° 237° (WSW) 17,795 9.1 55.6°
Drops below altitude 10° 11:31:01 10° 259° (W) 35,465 13.3 8.1°
Maximum altitude 14:35:17 80° 2° (N) 2,295 4.1 -35.3°
Enters shadow 14:36:48 69° 66° (ENE) 2,134 3.8 -35.6°
